USA 148

Last updated on Sun Oct 06 2024 00:02:38 GMT+0000 (Coordinated Universal Time)

1 26052U 00001A 24279.57021007 .00000049 00000+0 00000+0 0 9993 2 26052 10.8890 36.9446 0002346 209.4026 153.9274 1.00275411 26755
UTC large
Height (km)
Speed (km/s)
/
Latitude / Longitude
Inclination (degrees)
Orbital Period (minutes)
Azimuth
Elevation
Range (km)
Doppler Factor

Next 0 passes for location: London (51.5072 / 0.1276)

Sorry there are no passes over London.